Regional Weather Roundup
Issued by NWS

Home | Current Version | Previous Version | Text Only | Print | Product List | Glossary Off
Versions: 1 2 3 4 5 6 7 8 9 10 11 12 13 14 15 16 17 18 19 20 21 22 23 24 25 26 27

000
ASUS45 KTFX 242010
RWRMT
MONTANA REGIONAL WEATHER ROUNDUP
NATIONAL WEATHER SERVICE GREAT FALLS MT
200 PM MDT SAT JUN 24 2017

NOTE: "FAIR" INDICATES FEW OR NO CLOUDS BELOW 12000 FEET WITH NO
SIGNIFICANT WEATHER AND/OR OBSTRUCTIONS TO VISIBILITY.

MTZ001>007-043-242100-
WEST OF THE DIVIDE

CITY           SKY/WX    TMP DP  RH WIND       PRES   REMARKS
KALISPELL      SUNNY     76  45  33 VRB3      30.25F
MISSOULA       SUNNY     77  36  22 CALM      30.24F
BUTTE          SUNNY     70  31  23 VRB7      30.34F
MULLAN PASS    SUNNY     68  33  27 CALM      30.37F
ANACONDA         N/A     70  34  26 NE7       30.30F
DEER LODGE       N/A     72  36  26 CALM      30.33F
EUREKA           N/A     75  36  23 MISG      30.25F
HAMILTON         N/A     75  39  27 N3        30.25F
$$

MTZ008-052>055-242100-
SOUTHWEST MONTANA

CITY           SKY/WX    TMP DP  RH WIND       PRES   REMARKS
BOZEMAN        SUNNY     73  37  27 N8        30.31F
DILLON         SUNNY     70  41  34 W6        30.31F
W YELLOWSTONE  PTSUNNY   66  28  24 CALM      30.36S
ENNIS          SUNNY     72  34  25 NW8G14    30.37F
THREE FORKS      N/A     72  40  31 E2        30.27F
$$

MTZ009-010-012-014-046-048-049-054-242100-
EAST SLOPES AND CENTRAL MONTANA

CITY           SKY/WX    TMP DP  RH WIND       PRES   REMARKS
CUT BANK       PTSUNNY   67  39  35 E3        30.33S
GREAT FALLS    SUNNY     71  36  27 E8        30.31F
MALMSTROM AFB  SUNNY     70  36  28 NW3       30.31F
HELENA         SUNNY     75  39  27 N7        30.28F
CHOTEAU          N/A     68  39  34 CALM      30.33S
$$

MTZ011-013-016-021-045-047-050-051-242100-
NORTH CENTRAL MONTANA

CITY           SKY/WX    TMP DP  RH WIND       PRES   REMARKS
HAVRE          CLOUDY    70  36  28 N10       30.31S
LEWISTOWN      PTSUNNY   67  35  30 VRB5      30.34F
N BAR RANCH      N/A     66  32  28 W5G13     30.36F
CHINOOK          N/A     70  34  26 NW7       30.30S
FORT BENTON      N/A     72  37  28 MISG      30.32F
$$

MTZ017>020-022>027-061-062-242100-
NORTHEAST MONTANA

CITY           SKY/WX    TMP DP  RH WIND       PRES   REMARKS
GLASGOW        PTSUNNY   70  33  25 N12       30.29F
JORDAN           N/A     72  30  21 W6G22     30.29F
SIDNEY         MOSUNNY   69  33  26 N17       30.28F
WOLF POINT     PTSUNNY   72  31  22 N12G18    30.28F
MALTA          PTSUNNY   72  32  23 N8        30.29S
PLENTYWOOD       N/A     64  34  32 NW18G25   30.27F
POPLAR           N/A     68  32  26 N10G16    30.28F
$$

MTZ028>42-056>058-242100-
SOUTHCENTRAL AND SOUTHEAST MONTANA

CITY           SKY/WX    TMP DP  RH WIND       PRES   REMARKS
BAKER          MOSUNNY   69  28  21 N17G29    30.30S
BILLINGS       MOSUNNY   73  33  23 N5        30.31F
LIVINGSTON     SUNNY     71  37  28 CALM      30.31F
MILES CITY     MOSUNNY   74  29  19 N18G24    30.28F
BIG TIMBER     SUNNY     70  36  28 N6        30.34F
FORSYTH          N/A     72  34  25 W5        30.28S
ROUNDUP          N/A     71  29  21 N5        30.20F
$$

REGIONAL REPORTS...DAKOTAS

CITY           SKY/WX    TMP DP  RH WIND       PRES   REMARKS
WILLISTON      PTSUNNY   66  35  31 N16G28    30.28F
MINOT          CLOUDY    57  41  55 NW15      30.22S
DICKINSON      SUNNY     64  30  27 N18G31    30.25S
BEACH            N/A     63  30  29 N20G25    30.32F
CROSBY         PTSUNNY   63  36  36 N20G29    30.27S
TIOGA          CLOUDY    59  36  41 N23G30    30.28R
WATFORD CITY   PTSUNNY   63  37  39 N17       30.26F
BISMARCK       CLOUDY    61  41  47 N18G28    30.23R
GRAND FORKS    LGT RAIN  55  51  86 NW17G28   30.06R
FARGO          CLOUDY    59  46  62 NW17G28   30.07R
BUFFALO SD       N/A     69  30  23 NW30G38   30.20F
RAPID CITY     SUNNY     75  30  19 NW18G32   30.26F
$$

REGIONAL REPORTS...WYOMING/IDAHO/WASHINGTON

CITY           SKY/WX    TMP DP  RH WIND       PRES   REMARKS
GILLETTE       MOSUNNY   71  30  21 N13G23    30.32F
SHERIDAN       MOSUNNY   71  35  26 NW6       30.32F
BUFFALO WY     MOSUNNY   65  34  31 N10G18    30.37S
CODY           SUNNY     70  34  26 VRB5      30.34F
YELLOWSTONE LA   N/A     60  36  40 VRB6      30.44F
IDAHO FALLS    SUNNY     76  36  23 VRB3      30.26F
SALMON         SUNNY     75  39  27 NW7       30.22F
BOISE          SUNNY     82  34  17 NW6       30.17F
SPOKANE        MOSUNNY   80  36  20 CALM      30.23F
$$

REGIONAL REPORTS...ALBERTA

CITY           SKY/WX    TMP DP  RH WIND       PRES   REMARKS
EDMONTON       MOSUNNY   70  48  46 NW6       30.26F
CALGARY        PTSUNNY   66  37  34 CALM      30.34S
LETHBRIDGE     MOSUNNY   68  45  42 VRB2      30.32F
MEDICINE HAT   PTSUNNY   64  48  55 W2        30.32S
WATERTON GATE    N/A     66  43  42 NE8         N/A
CARDSTON         N/A     70  41  35 E6          N/A
MILK RIVER       N/A     68  41  37 E5          N/A
ONEFOUR          N/A     68  36  30 W6          N/A
$$

REGIONAL REPORTS...SASKATCHEWAN

CITY           SKY/WX    TMP DP  RH WIND       PRES   REMARKS
SWIFT CURRENT  MOSUNNY   64  39  39 NW14      30.28F
REGINA         MOSUNNY   64  37  36 N14G28    30.27F
SASKATOON      PTSUNNY   68  39  34 W12G21    30.23F
CYPRESS HILLS    N/A     63  36  36 N6          N/A
VAL MARIE        N/A     68  34  28 NW7         N/A
ROCKGLEN         N/A     64  32  29 N12G17      N/A
$$




USA.gov is the U.S. government's official web portal to all federal, state and local government web resources and services.